Regional Weather Roundup
Issued by NWS

Home | Current Version | Previous Version | Text Only | Print | Product List | Glossary Off
Versions: 1 2 3 4 5 6 7 8 9 10 11 12 13 14 15 16 17 18 19 20 21 22 23 24 25 26 27 28 29 30 31 32 33 34 35 36 37 38 39 40 41 42 43 44 45 46 47 48 49 50

403
ASUS43 KOAX 161302
RWRNE

WEATHER ROUNDUP FOR NEBRASKA
NATIONAL WEATHER SERVICE OMAHA NE
700 AM CST TUE JAN 16 2018

NOTES: SATELLITE DATA IS BEING USED TO AUGMENT CLOUD COVER ABOVE
       12000 FEET.
       "FAIR" INDICATES FEW OR NO CLOUDS BELOW 12,000 FEET WITH NO
       SIGNIFICANT WEATHER AND/OR OBSTRUCTIONS TO VISIBILITY.


NEZ001>004-019>022-054>056-161400-
NEBRASKA PANHANDLE

CITY           SKY/WX    TMP DP  RH WIND       PRES   REMARKS
SCOTTSBLUFF    CLEAR    -10 -15  78 N3        30.55F
ALLIANCE       CLEAR    -18 -22  82 SW6       30.54F WCI -33
CHADRON        CLEAR    -14 -21  71 SW5       30.59F WCI -26
GORDON         FAIR     -14 -19  79 CALM      30.56S
KIMBALL        CLEAR     -3  -8  76 CALM      30.47F
SIDNEY         CLEAR    -11 -15  82 W6        30.53F WCI -25
$$

NEZ057>060-069>072-079>082-161400-
SOUTHWEST NEBRASKA

CITY           SKY/WX    TMP DP  RH WIND       PRES   REMARKS
NORTH PLATTE   CLEAR     -4 -13  65 NW13      30.68F WCI -23
IMPERIAL       CLEAR     -5 -10  79 NW10      30.64S WCI -23
LEXINGTON      CLEAR     -2 -10  69 NW9       30.70F WCI -18
MCCOOK         CLEAR     -3 -11  68 NW7       30.71R WCI -16
OGALLALA       PTCLDY    -4 -10  77 W6        30.64F WCI -17
$$

NEZ005>010-023>029-035>040-094-161400-
NORTH CENTRAL NEBRASKA

CITY           SKY/WX    TMP DP  RH WIND       PRES   REMARKS
VALENTINE      CLEAR    -10 -17  71 SW7       30.67F WCI -25
AINSWORTH      CLEAR     -8 -14  76 NW8       30.67F WCI -25
BROKEN BOW     CLEAR     -6 -15  65 NW10      30.67F WCI -24
O`NEILL        CLOUDY    -4  -9  79 NW13      30.73S WCI -23
ORD            CLOUDY    -5 -11  75 NW15      30.72S WCI -26
THEDFORD       PTCLDY    -8 -15  71 W3        30.66S
$$

NEZ041-046>049-061>064-073>077-083>087-161400-
SOUTH CENTRAL NEBRASKA

CITY           SKY/WX    TMP DP  RH WIND       PRES   REMARKS
GRAND ISLAND   CLOUDY     0  -5  79 NW14      30.72S WCI -19
AURORA         CLOUDY     1  -5  78 N14       30.71S WCI -18
HASTINGS       MOCLDY    -2  -8  76 NW17      30.71S WCI -23
HEBRON         CLOUDY    -2  -8  75 NW7       30.75S WCI -16
HOLDREGE       CLOUDY    -3  -9  77 N12       30.70S WCI -21
KEARNEY        CLOUDY    -5 -12  72 N12       30.72R WCI -23
YORK           CLEAR      0  -4  85 N9        30.73R WCI -16
$$

NEZ011>018-030>034-042>045-161400-
NORTHEAST NEBRASKA

CITY           SKY/WX    TMP DP  RH WIND       PRES   REMARKS
NORFOLK        CLOUDY    -2  -6  83 NW17      30.72S WCI -23
ALBION         CLOUDY     1  -5  76 NW17G25   30.71R WCI -19
BLAIR          MOCLDY    -2  -8  77 NW12G18   30.70F WCI -20
COLUMBUS       CLOUDY    -2  -7  79 NW13      30.76R WCI -20
FREMONT        CLOUDY     0  -6  77 NW17      30.75S WCI -21
TEKAMAH        CLOUDY    -1  -8  72 NW12      30.76R WCI -18
WAYNE          CLOUDY    -4  -9  77 N16G22    30.74S WCI -25
$$

NEZ050>053-065>068-078-088>093-161400-
SOUTHEAST NEBRASKA

CITY           SKY/WX    TMP DP  RH WIND       PRES   REMARKS
LINCOLN        MOCLDY    -1  -8  72 N8        30.77R WCI -15
OMAHA EPPLEY   MOCLDY    -2  -8  76 NW15      30.75R WCI -22
BEATRICE       CLOUDY     1  -5  73 N20       30.74S WCI -20
FALLS CITY     CLOUDY    -2  -8  76 NW12      30.74R WCI -20
NEBRASKA CITY  PTCLDY    -2  -8  76 N16       30.73R WCI -22
PLATTSMOUTH    CLEAR     -3  -9  75 NW14      30.72R WCI -22
$$

NEZ044-045-051>053-067-161400-
OMAHA AREA

CITY           SKY/WX    TMP DP  RH WIND       PRES   REMARKS
OMAHA EPPLEY   MOCLDY    -2  -8  76 NW15      30.75R WCI -22
BLAIR          MOCLDY    -2  -8  77 NW12G18   30.70F WCI -20
FREMONT        CLOUDY     0  -6  77 NW17      30.75S WCI -21
MILLARD        CLEAR     -1  -8  72 NW9       30.76R WCI -16
OFFUTT AFB     CLEAR     -3 -11  68 NW9       30.74R WCI -19
PLATTSMOUTH    CLEAR     -3  -9  75 NW14      30.72R WCI -22
WAHOO          CLOUDY     0  -6  73 MISG      30.75S
$$




USA.gov is the U.S. government's official web portal to all federal, state and local government web resources and services.